Weather reports worldwide

Advertisment
Roma/Ciampino, Italy (16239): temperature & dewpoint: 15.09.2018 01:00:00 - 21.09.2018 01:00:00 (CEST)Roma/Ciampino, Italy (16239): wind speed: 15.09.2018 01:00:00 - 21.09.2018 01:00:00 (CEST)Roma/Ciampino, Italy (16239): wind direction: 15.09.2018 01:00:00 - 21.09.2018 01:00:00 (CEST)Roma/Ciampino, Italy (16239): reduced air pressure: 15.09.2018 01:00:00 - 21.09.2018 01:00:00 (CEST)Roma/Ciampino, Italy (16239): visibility: 15.09.2018 01:00:00 - 21.09.2018 01:00:00 (CEST)Roma/Ciampino, Italy (16239): precipitation: 15.09.2018 01:00:00 - 21.09.2018 01:00:00 (CEST)
Date & Time tt [°C] td [°C] ff [km/h] ff [kn] dd ppp [hPa] vv [km] rr [mm]
21.09.2018 01:00:00 20,0 18,0 9 5 E - 10 -
21.09.2018 00:00:00 20,0 18,0 5 3 NE - 10 -
20.09.2018 23:00:00 20,5 18,0 11 6 SE 1016,9 10 0,0
20.09.2018 22:00:00 23,0 18,0 21 11 E - 10 -
20.09.2018 21:00:00 22,0 19,0 8 4 ESE - 10 -
20.09.2018 20:00:00 22,9 18,3 9 5 E 1016,4 10 -
20.09.2018 19:00:00 - - - - - - - -
20.09.2018 18:00:00 24,0 20,0 11 6 NE - 10 -
20.09.2018 17:00:00 23,0 18,8 18 10 NNW 1016,4 10 0,0
20.09.2018 16:00:00 26,0 20,0 8 4 NNW - 10 -
20.09.2018 15:00:00 26,0 19,0 8 4 N - 10 -
20.09.2018 14:00:00 26,5 20,0 9 5 NNE 1016,9 10 -
20.09.2018 13:00:00 25,0 21,0 11 6 NNE - 10 -
20.09.2018 12:00:00 24,0 20,0 15 8 NNE - 10 -
20.09.2018 11:00:00 23,0 20,0 11 6 NNE - 10 -
20.09.2018 10:00:00 21,0 20,0 9 5 NNE - 10 -
20.09.2018 09:00:00 20,0 19,0 5 3 ENE - 9 -
20.09.2018 08:00:00 20,0 19,2 4 2 - 1017,4 8 -
20.09.2018 07:00:00 20,0 19,0 8 4 NNE - 8 -
20.09.2018 06:00:00 20,0 19,0 8 4 NE - 10 -
20.09.2018 05:00:00 20,0 19,3 11 6 NNE 1017,3 8 0,0
20.09.2018 04:00:00 20,0 19,0 13 7 NE - 10 -
20.09.2018 03:00:00 - - - - - - - -
20.09.2018 02:00:00 20,2 19,4 4 2 - 1017,6 10 -
20.09.2018 01:00:00 20,0 20,0 8 4 ENE - 8 -
20.09.2018 00:00:00 20,0 20,0 2 1 - - 9 -
19.09.2018 23:00:00 21,1 20,1 9 5 NNE 1018,5 10 0,0
19.09.2018 22:00:00 21,0 20,0 5 3 ENE - 8 -
19.09.2018 21:00:00 22,0 20,0 8 4 NNW - 9 -
19.09.2018 20:00:00 22,7 20,3 8 4 N 1018,2 10 -
19.09.2018 19:00:00 23,0 21,0 8 4 N - 10 -
19.09.2018 18:00:00 24,0 20,0 5 3 N - 10 -
19.09.2018 17:00:00 24,1 20,2 4 2 - 1017,8 10 0,0
19.09.2018 16:00:00 24,0 20,0 5 3 SSW - 10 -
19.09.2018 15:00:00 25,0 20,0 4 2 - - 10 -
19.09.2018 14:00:00 24,8 19,7 4 2 - 1018,8 10 -
19.09.2018 13:00:00 25,0 20,0 5 3 W - 10 -
19.09.2018 12:00:00 24,0 20,0 2 1 - - 10 -
19.09.2018 11:00:00 23,6 19,2 2 1 - 1019,7 10 0,0
19.09.2018 10:00:00 22,0 20,0 4 2 - - 10 -
19.09.2018 09:00:00 22,0 19,0 4 2 - - 10 -
19.09.2018 08:00:00 20,6 18,8 5 3 NNE 1018,8 10 -
19.09.2018 07:00:00 20,0 18,0 8 4 E - 10 -
19.09.2018 06:00:00 20,0 18,0 5 3 E - 10 -
19.09.2018 05:00:00 20,4 18,7 4 2 - 1019,0 10 0,0
19.09.2018 04:00:00 20,0 19,0 5 3 ESE - 10 -
19.09.2018 03:00:00 21,0 20,0 5 3 SE - 10 -
19.09.2018 02:00:00 20,5 19,5 5 3 E 1019,6 10 -
19.09.2018 01:00:00 21,0 19,0 2 1 - - 10 -
19.09.2018 00:00:00 22,0 18,0 5 3 E - 10 -
18.09.2018 23:00:00 22,1 18,5 8 4 E 1020,0 10 0,0
18.09.2018 22:00:00 23,0 20,0 5 3 ESE - 10 -
18.09.2018 21:00:00 23,0 20,0 5 3 SE - 10 -
18.09.2018 20:00:00 23,9 19,6 5 3 SSW 1019,3 10 -
18.09.2018 19:00:00 25,0 19,0 8 4 SW - 10 -
18.09.2018 18:00:00 27,0 18,0 11 6 SSW - 10 -
18.09.2018 17:00:00 27,2 18,6 11 6 SW 1018,8 10 0,0
18.09.2018 16:00:00 28,0 18,0 11 6 SSW - 10 -
18.09.2018 15:00:00 28,0 19,0 11 6 SSE - 10 -
18.09.2018 14:00:00 26,4 17,0 15 8 SSE 1019,6 10 -
18.09.2018 13:00:00 27,0 17,0 9 5 - - 10 -
18.09.2018 12:00:00 27,0 17,0 5 3 - - 10 -
18.09.2018 11:00:00 25,7 17,2 4 2 - 1020,7 10 0,0
18.09.2018 10:00:00 25,0 18,0 4 2 - - 10 -
18.09.2018 09:00:00 23,0 19,0 4 2 ENE - 10 -
18.09.2018 08:00:00 21,5 19,2 2 1 N 1020,2 15 -
18.09.2018 07:00:00 21,0 19,0 2 1 - - 10 -
18.09.2018 06:00:00 21,0 19,0 4 2 - - 10 -
18.09.2018 05:00:00 20,4 19,1 5 3 SE 1019,7 10 0,0
18.09.2018 04:00:00 21,0 19,0 8 4 E - 10 -
18.09.2018 03:00:00 21,0 19,0 8 4 E - 10 -
18.09.2018 02:00:00 21,0 19,4 5 3 E 1020,0 10 -
18.09.2018 01:00:00 21,0 20,0 8 4 E - 10 -
18.09.2018 00:00:00 21,0 20,0 5 3 ESE - 10 -
17.09.2018 23:00:00 21,8 20,4 4 2 SE 1020,5 10 0,0
17.09.2018 22:00:00 22,0 21,0 4 2 - - 10 -
17.09.2018 21:00:00 24,0 20,0 2 1 - - 10 -
17.09.2018 20:00:00 24,0 20,0 5 3 SW 1020,4 10 -
17.09.2018 19:00:00 25,0 20,0 8 4 SW - 10 -
17.09.2018 18:00:00 26,0 19,0 11 6 SW - 10 -
17.09.2018 17:00:00 26,6 18,7 13 7 WSW 1020,1 10 0,0
17.09.2018 16:00:00 28,0 19,0 13 7 SSW - 10 -
17.09.2018 15:00:00 28,0 19,0 13 7 SSW - 10 -
17.09.2018 14:00:00 27,1 18,8 11 6 SW 1021,4 10 -
17.09.2018 13:00:00 27,0 19,0 11 6 SSW - 10 -
17.09.2018 12:00:00 27,0 18,0 11 6 SW - 10 -
17.09.2018 11:00:00 26,5 18,7 5 3 - 1022,0 10 0,0
17.09.2018 10:00:00 24,0 19,0 5 3 WSW - 10 -
17.09.2018 09:00:00 22,0 19,0 4 2 - - 10 -
17.09.2018 08:00:00 20,3 17,2 4 2 - 1021,4 10 -
17.09.2018 07:00:00 20,0 17,0 9 5 E - 10 -
17.09.2018 06:00:00 20,0 18,0 8 4 ENE - 10 -
17.09.2018 05:00:00 19,7 17,6 5 3 E 1021,3 10 0,0
17.09.2018 04:00:00 20,0 18,0 5 3 ENE - 10 -
17.09.2018 03:00:00 20,0 18,0 4 2 - - 10 -
17.09.2018 02:00:00 19,8 18,1 5 3 ESE 1022,0 10 -
17.09.2018 01:00:00 20,0 18,0 5 3 ESE - 10 -
17.09.2018 00:00:00 21,0 18,0 5 3 SE - 10 -
16.09.2018 23:00:00 21,4 18,9 5 3 E 1022,2 10 0,0
16.09.2018 22:00:00 22,0 19,0 8 4 E - 10 -
16.09.2018 21:00:00 23,0 20,0 4 2 S - 10 -
16.09.2018 20:00:00 23,5 19,6 5 3 SW 1022,0 10 -
16.09.2018 19:00:00 24,0 20,0 8 4 SW - 10 -
16.09.2018 18:00:00 26,0 19,0 9 5 SW - 10 -
16.09.2018 17:00:00 27,3 19,4 9 5 SW 1021,3 10 0,0
16.09.2018 16:00:00 28,0 19,0 13 7 SSW - 10 -
16.09.2018 15:00:00 27,0 19,0 13 7 SW - 10 -
16.09.2018 14:00:00 27,5 19,0 11 6 SW 1022,0 10 -
16.09.2018 13:00:00 28,0 17,0 13 7 SSW - 10 -
16.09.2018 12:00:00 27,0 17,0 9 5 SSW - 10 -
16.09.2018 11:00:00 25,4 19,0 9 5 S 1022,8 10 0,0
16.09.2018 10:00:00 25,0 19,0 8 4 S - 10 -
16.09.2018 09:00:00 23,0 19,0 2 1 - - 10 -
16.09.2018 08:00:00 21,1 18,6 4 2 - 1022,1 10 -
16.09.2018 07:00:00 19,0 17,0 4 2 - - 10 -
16.09.2018 06:00:00 19,0 18,0 9 5 ESE - 10 -
16.09.2018 05:00:00 19,8 17,5 8 4 E 1021,1 10 0,0
16.09.2018 04:00:00 20,0 18,0 9 5 E - 10 -
16.09.2018 03:00:00 20,0 18,0 5 3 E - 10 -
16.09.2018 02:00:00 19,8 17,9 5 3 ESE 1022,0 10 -
16.09.2018 01:00:00 21,0 19,0 8 4 E - 10 -
16.09.2018 00:00:00 21,0 19,0 5 3 E - 10 -
15.09.2018 23:00:00 20,8 18,8 5 3 ESE 1021,6 10 0,0
15.09.2018 22:00:00 22,0 19,0 5 3 SE - 10 -
15.09.2018 21:00:00 23,0 20,0 4 2 - - 10 -
15.09.2018 20:00:00 23,2 19,7 5 3 SSW 1020,7 10 -
15.09.2018 19:00:00 25,0 19,0 9 5 SSW - 10 -
15.09.2018 18:00:00 26,0 19,0 9 5 SW - 10 -
15.09.2018 17:00:00 26,8 19,5 11 6 SW 1019,5 10 0,0
15.09.2018 16:00:00 27,0 19,0 11 6 SW - 10 -
15.09.2018 15:00:00 28,0 20,0 13 7 SSW - 10 -
15.09.2018 14:00:00 27,9 19,7 11 6 - 1020,0 10 -
15.09.2018 13:00:00 27,0 19,0 8 4 - - 10 -
15.09.2018 12:00:00 27,0 18,0 4 2 - - 10 -
15.09.2018 11:00:00 24,8 19,5 8 4 - 1020,4 10 0,0
15.09.2018 10:00:00 24,0 20,0 5 3 NW - 10 -
15.09.2018 09:00:00 24,0 20,0 4 2 - - 10 -
15.09.2018 08:00:00 21,2 18,9 4 2 - 1019,1 10 -
15.09.2018 07:00:00 19,0 18,0 8 4 E - 10 -
15.09.2018 06:00:00 19,0 17,0 9 5 E - 10 -
15.09.2018 05:00:00 18,9 16,8 8 4 E 1018,3 - 0,0
15.09.2018 04:00:00 19,0 17,0 8 4 ESE - 10 -
15.09.2018 03:00:00 19,0 17,0 8 4 ESE - 10 -
15.09.2018 02:00:00 19,4 17,5 8 4 ESE 1018,3 10 -
15.09.2018 01:00:00 20,0 17,0 8 4 ESE - 10 -

tt = temperature
td = dewpoint
ff = wind speed
dd = wind direction
ppp = reduced air pressure
vv = visibility
rr = precipitation

Next stations